Location: Prairie Dale
(45.6972°N, 104.5033°W)
Time: 16:16:05
(UTC+00:00)

ESTCUBE 1 - Pass Details

Date: 27 June 2022
Orbit: 646 x 657 km, 97.9° (Epoch: 07 August)

Event Time Altitude Azimuth Distance (km) Brightness Sun altitude
Exits shadow 03:27:42 - 104° (ESE) 2,591 ? -5.7°
Reaches altitude 10° 03:30:00 10° 82° (E) 2,049 ? -6.0°
Maximum altitude 03:31:48 12° 59° (ENE) 1,899 ? -6.2°
Drops below altitude 10° 03:33:36 10° 35° (NE) 2,056 ? -6.5°
Sets 03:37:05 0° 6° (N) 2,974 ? -6.9°
